Regional & State Weather Roundups


812 
ASUS46 KSTO 161815
RWRCA 
NORTHERN AND CENTRAL CA REGIONAL WEATHER ROUNDUP
NATIONAL WEATHER SERVICE SACRAMENTO CA 
1000 AM PST SAT DEC 16 2017
NOTE: FAIR INDICATES FEW OR NO CLOUDS BELOW 12,000 FEET WITH NO
SIGNIFICANT WEATHER AND/OR OBSTRUCTIONS TO VISIBILITY.
CAZ001-003-161900-
NORTHWEST AREA
  
CITY           SKY/WX    TMP DP  RH WIND       PRES   REMARKS
CRESCENT CITY  SUNNY     53  35  50 N16G24    30.31R                  
UKIAH          SUNNY     49  34  56 CALM      30.09R                  
$$
CAZ006-505>513-161900-
BAY AREA
  
CITY           SKY/WX    TMP DP  RH WIND       PRES   REMARKS
SANTA ROSA     MOSUNNY   58  32  37 NW6       30.02S                  
SAN RAFAEL     N/A       58  MM  MM MISG
NAPA           SUNNY     60  19  20 N26G32    29.98F                  
CONCORD        SUNNY     62  25  24 N18G29    29.97F                  
OAKLAND CITY   N/A      MM  MM  MM MISG
OAKLAND        MOSUNNY   59  26  28 NW17G28   29.98S                  
SAN FRAN CITY  N/A       59  MM  21 MISG
SAN FRAN ARPT  MOSUNNY   59  29  31 N24G30    29.97F                  
LIVERMORE      SUNNY     57  26  30 N7        29.96F                  
HAYWARD        SUNNY     60  21  22 NW13      29.97F                  
REDWOOD CITY   N/A       59  MM  31 MISG
MOFFETT ARPT   SUNNY     58  31  35 NW14G24   29.97S                  
SAN JOSE ARPT  MOSUNNY   59  30  33 W15G24    29.96S                  
$$
CAZ034-037-514>518-161900-
CENTRAL COAST
  
CITY           SKY/WX    TMP DP  RH WIND       PRES   REMARKS
WATSONVILLE    SUNNY     59  31  34 VRB6      29.94R                  
SALINAS        SUNNY     59  31  34 NW12      29.92S                  
MONTEREY       SUNNY     59  41  51 NW9       29.93S                  
SAN LUIS OBISP SUNNY     60  39  45 N16       29.85S                  
SANTA MARIA    SUNNY     61  39  44 N13       29.84R                  
$$
CAZ015-016-161900-
NORTHERN SACRAMENTO VALLEY
  
CITY           SKY/WX    TMP DP  RH WIND       PRES   REMARKS
REDDING        SUNNY     54  23  30 N15G24    30.14S                  
RED BLUFF      SUNNY     55  25  31 NW14G24   30.13S                  
OROVILLE       SUNNY     54  29  38 NW13G22   30.04F                  
$$
CAZ016>018-161900-
SOUTHERN SACRAMENTO VALLEY
  
CITY           SKY/WX    TMP DP  RH WIND       PRES   REMARKS
AUBURN         SUNNY     54  28  37 NW7       29.95F                  
BEALE AFB      SUNNY     55  29  37 N21G29    29.97F                  
LINCOLN        FAIR      52  28  40 N22       29.98S                  
MARYSVILLE     SUNNY     55  29  36 NW17G31   30.00F                  
SAC INTL ARPT  MOSUNNY   55  29  36 N25G36    29.98R                  
MATHER AIRPORT MOSUNNY   54  28  37 N28G35    29.92R                  
DOWNTOWN SAC   N/A       55  MM  MM MISG
SAC EXEC ARPT  SUNNY     55  28  35 NW26G40   29.95S                  
VACAVILLE      SUNNY     59  22  24 N29G38    29.99F                  
TRAVIS AFB     SUNNY     58  23  26 N23G32    29.96R                  
$$
CAZ019>021-161900-
SAN JOAQUIN VALLEY
  
CITY           SKY/WX    TMP DP  RH WIND       PRES   REMARKS
STOCKTON       SUNNY     58  29  33 NW22G38   29.91R                  
MODESTO        SUNNY     56  29  35 NW28G38   29.87S                  
MERCED         SUNNY     54  28  36 NW24G31   29.87R                  
LEMOORE        SNOW     N/A N/A N/A NW30G39   29.87S VSB 1/2          
FRESNO         SUNNY     47  40  76 N7        29.88R HAZE             
HANFORD        SUNNY     52  38  58 NW15      29.88S                  
PORTERVILLE    SUNNY     53  38  56 SW12      29.88F HAZE             
BAKERSFIELD    SUNNY     53  37  54 SW8       29.89F HAZE             
$$
CAZ011-012-071-161900-
NORTHERN MOUNTAINS
  
CITY           SKY/WX    TMP DP  RH WIND       PRES   REMARKS
YREKA          SUNNY     36  28  73 E3        30.28R                  
MOUNT SHASTA   SUNNY     34  24  67 MISG      30.18R                  
ALTURAS        SUNNY     33  23  66 N18       30.18R WCI  22          
$$
CAZ011-012-071-161900-
SIERRA NEVADA MTNS
  
CITY           SKY/WX    TMP DP  RH WIND       PRES   REMARKS
BLUE CANYON    SUNNY     35  10  35 NE16G31   29.95S WCI  25          
TAHOE VLY ARPT PTSUNNY   29  19  66 N9        30.01R WCI  20          
MAMMOTH LAKES  CLOUDY    32  22  65 NW13G21   29.97R WCI  23          
$$